STARLINK-1168, 45072

Orbit data source: Space-Track

STARLINK-1168, 45072 is a payload satellite owned by SpaceX/Seattle (US) in LEO that was launched on Wed, 29 Jan 2020 UTC via an FALCON 9 launch vehicle from the Air Force Eastern Test Range (AFETR). Payload-class satellites include a variety of spacecraft equipped with specific instruments for various scientific and technological missions. These include communications satellites like Starlink; space stations such as the ISS; scientific satellites like the Hubble; Earth observation satellites from companies like Planet Labs, Umbra, and HawkEye 360; GPS; miniature CubeSats for education and research; and military/defense satellites.

Loading next visibility...
Identifier
45072, 2020-006AE
Orbit
LEO
Country
Flag of USUS
Related business
Manufacturer
SpaceX/Seattle
Mission
Operational Commercial Communications
Bus & Motor
STARLINK, Unknown motor
Mass
260 kg wet, ~248 kg dry
Launch date (UTC)
2020-01-29 (6 years ago)
Launch vehicle
FALCON 9
Launch site
Air Force Eastern Test Range (AFETR)
Object type
Payload
Rocket body
Debris
Shape & HBR
Box + 1 Pan, 10.1 m
Radar Cross Section
13.562 m², Large (>1 m²)

Expand to show TLE details & history
Last TLE update: 1 day ago

TLE from 1 day ago
0 STARLINK-1168
1 45072U 20006AE  25307.46889428 -.00002433  00000-0 -14450-3 0  9993
2 45072  53.0527 113.2443 0001377  84.6810 275.4336 15.06402811317712
Epoch: 2025-11-03T11:15Z
TLE epoch observation values (Epoch: 2025-11-03T11:15:12.465Z)
Latitude
-0.00004°
Longitude
-98.5275°
Altitude
547.992 km
Speed
7.589 km/s
True Right ascension
07h 32m 58s
True Declination
0° 00' 00"
Sunlit
Object was in daylight at epoch
Visualization orbit readout
Latitude
Unknown
Longitude
Unknown
Altitude
Unknown
Speed
Unknown
Apparent Right ascension
Unknown
Apparent Declination
Unknown
Sunlit
N/A
Visualization observer readout
Local Sidereal Time
06:41:23
Azimuth
Unknown
Elevation
Unknown
Doppler factor
Unknown
Orbital elements
Apogee altitude
548.428 km
Perigee altitude
546.52 km
Semi-major axis
6,925.611 km
Eccentricity
0.00014
Inclination
53.0527°
RAAN
113.2443°
Arg. of periapsis
84.681°
True anomaly
275.41789°
Mean anomaly
275.4336°
Eccentric anomaly
275.42575°
Mean motion
3.76579 °/min
Orbital period
95.6 mins
BSTAR
-0.0001445
Loading maneuver chart data...
Computing Atmospheric mass density...

Documentation

Showing up to 5 results
|